Hourly Data Report for June 27, 2012

ABBOTSFORD A
BRITISH COLUMBIA

49°01'31.000" N
122°21'36.000" W
59.10 m
1100031
71108
YXX

Download Data

Hourly Data (June 2012)
Hourly Data Report for June 27, 2012
TIME
LST
Temp Definition
°C
Dew Point Definition
°C
Rel Hum Definition
%
Precip. Amount Definition
mm

Wind Dir Definition
10's deg

Wind Spd Definition
km/h
Visibility Definition
km
Stn Press Definition
kPa
Hmdx Definition


Wind Chill Definition


Weather Definition


00:00 12.3 7.8 74   18 7 10.0 101.06     LegendNANA
01:00 12.0 7.9 76     0 10.0 101.07     Mostly Cloudy
02:00 11.8 9.2 84   36 4 10.0 101.10     LegendNANA
03:00 11.5 9.4 87   2 5 10.0 101.14     LegendNANA
04:00 11.0 9.4 90   3 8 10.0 101.16     Cloudy
05:00 10.3 8.9 91   35 5 10.0 101.18     LegendNANA
06:00 11.2 9.3 88   2 8 10.0 101.18     LegendNANA
07:00 12.7 9.0 78   3 6 10.0 101.18     Mostly Cloudy
08:00 15.0 8.8 66   3 9 10.0 101.16     LegendNANA
09:00 16.0 7.6 57   1 10 10.0 101.11     LegendNANA
10:00 17.0 8.5 57   25 6 10.0 101.12     Mainly Clear
11:00 17.8 8.5 54     0 10.0 101.08     LegendNANA
12:00 18.9 9.2 53   28 8 10.0 101.05     LegendNANA
13:00 19.1 8.6 50   13 7 10.0 100.98     Mostly Cloudy
14:00 19.8 9.2 50   17 10 10.0 100.92     LegendNANA
15:00 20.3 8.4 46   19 6 10.0 100.88     LegendNANA
16:00 20.5 10.2 51     0 10.0 100.83     Mostly Cloudy
17:00 20.5 9.9 50   25 4 10.0 100.76     LegendNANA
18:00 20.6 10.5 52   31 7 10.0 100.72     LegendNANA
19:00 19.8 9.5 51   0 5 10.0 100.68     Mainly Clear
20:00 18.0 10.2 60   31 5 10.0 100.65     LegendNANA
21:00 16.3 11.1 71   33 6 10.0 100.65     LegendNANA
22:00 15.9 10.3 69   2 5 10.0 100.65     Mostly Cloudy
23:00 14.5 11.5 82     0 10.0 100.65     LegendNANA

Notes on Data Quality.

Legend

  • E = Estimated
  • M = Missing
  • NA = Not Available*
  • [empty] = Indicates an unobserved value
Date modified: